QPF
0.01 0.00 0.00 0.01 0.02 0.02 0.02 0.03 0.04 0.03 0.03 0.03 0.03 0.04 0.05 0.05 0.03 0.03 0.04 0.04 0.06 0.08 0.08 0.08 0.07 0.06 0.05 0.05 0.06 0.06 0.04 0.03 0.04 0.04 0.03 0.04 0.03 0.02 0.02 0.02 0.04 0.04 0.05
0.01 0.01 0.01 0.01 0.02 0.02 0.03 0.03 0.03 0.03 0.03 0.03 0.03 0.03 0.05 0.06 0.07 0.07 0.06 0.04 0.05 0.06 0.08 0.09 0.10 0.08 0.06 0.05 0.05 0.06 0.06 0.04 0.04 0.05 0.04 0.04 0.03 0.04 0.03 0.03 0.03 0.03 0.04
0.01 0.01 0.01 0.01 0.02 0.03 0.03 0.02 0.02 0.03 0.03 0.03 0.03 0.03 0.04 0.05 0.06 0.06 0.06 0.05 0.04 0.05 0.07 0.08 0.12 0.10 0.07 0.05 0.04 0.05 0.06 0.05 0.04 0.05 0.03 0.03 0.03 0.04 0.04 0.04 0.02 0.03 0.03
0.01 0.01 0.01 0.01 0.01 0.02 0.03 0.03 0.03 0.03 0.03 0.05 0.04 0.03 0.04 0.05 0.04 0.04 0.04 0.04 0.05 0.05 0.07 0.08 0.08 0.09 0.08 0.06 0.04 0.07 0.07 0.04 0.05 0.05 0.04 0.04 0.04 0.05 0.05 0.03 0.03 0.03 0.03
0.01 0.01 0.01 0.02 0.01 0.02 0.02 0.03 0.03 0.03 0.04 0.05 0.03 0.03 0.04 0.04 0.04 0.03 0.03 0.04 0.05 0.06 0.06 0.08 0.07 0.06 0.06 0.05 0.06 0.06 0.04 0.03 0.04 0.05 0.05 0.06 0.05 0.06 0.04 0.02 0.02 0.02 0.03
0.01 0.01 0.01 0.02 0.02 0.02 0.02 0.02 0.03 0.03 0.05 0.04 0.02 0.03 0.04 0.04 0.05 0.04 0.04 0.04 0.05 0.05 0.06 0.07 0.07 0.07 0.06 0.04 0.04 0.04 0.03 0.04 0.04 0.03 0.04 0.04 0.05 0.05 0.04 0.02 0.02 0.02 0.03
0.01 0.01 0.01 0.01 0.01 0.02 0.01 0.01 0.01 0.02 0.03 0.03 0.02 0.02 0.02 0.03 0.04 0.05 0.05 0.05 0.06 0.06 0.06 0.06 0.07 0.08 0.06 0.04 0.04 0.04 0.04 0.06 0.03 0.02 0.02 0.02 0.03 0.04 0.04 0.04 0.04 0.03 0.03
0.01 0.01 0.01 0.01 0.02 0.02 0.01 0.01 0.01 0.02 0.02 0.02 0.02 0.02 0.02 0.02 0.03 0.04 0.04 0.05 0.06 0.07 0.07 0.06 0.07 0.10 0.09 0.06 0.04 0.04 0.04 0.03 0.01 0.02 0.02 0.02 0.02 0.04 0.04 0.03 0.04 0.03 0.02
0.00 0.00 0.01 0.01 0.01 0.01 0.01 0.01 0.01 0.01 0.02 0.02 0.02 0.01 0.01 0.01 0.02 0.03 0.03 0.03 0.04 0.05 0.07 0.07 0.08 0.09 0.09 0.08 0.05 0.03 0.03 0.03 0.02 0.02 0.03 0.03 0.02 0.03 0.04 0.04 0.04 0.05 0.04
0.01 0.00 0.00 0.01 0.01 0.01 0.02 0.01 0.01 0.01 0.02 0.01 0.02 0.02 0.01 0.00 0.01 0.01 0.03 0.03 0.02 0.03 0.05 0.06 0.07 0.08 0.07 0.08 0.05 0.04 0.04 0.04 0.02 0.02 0.02 0.02 0.03 0.03 0.03 0.04 0.04 0.04 0.04
0.01 0.01 0.01 0.01 0.01 0.02 0.03 0.02 0.01 0.01 0.01 0.01 0.01 0.01 0.01 0.01 0.01 0.01 0.01 0.03 0.04 0.04 0.04 0.06 0.06 0.08 0.10 0.09 0.07 0.06 0.06 0.05 0.04 0.03 0.02 0.02 0.03 0.04 0.03 0.03 0.03 0.04 0.04
0.02 0.02 0.02 0.02 0.02 0.03 0.04 0.04 0.03 0.01 0.01 0.01 0.01 0.01 0.01 0.01 0.01 0.01 0.01 0.01 0.02 0.03 0.05 0.06 0.07 0.08 0.09 0.09 0.09 0.08 0.06 0.05 0.05 0.04 0.04 0.03 0.03 0.03 0.03 0.03 0.03 0.03 0.04
0.02 0.02 0.03 0.03 0.04 0.04 0.05 0.04 0.04 0.04 0.03 0.02 0.02 0.01 0.02 0.01 0.00 0.00 0.01 0.01 0.02 0.01 0.03 0.05 0.06 0.05 0.06 0.08 0.08 0.07 0.08 0.08 0.06 0.04 0.04 0.04 0.03 0.03 0.04 0.03 0.03 0.03 0.03
0.02 0.02 0.02 0.03 0.04 0.05 0.06 0.06 0.05 0.05 0.05 0.05 0.05 0.04 0.03 0.02 0.01 0.01 0.00 0.01 0.01 0.02 0.04 0.06 0.05 0.05 0.04 0.04 0.05 0.05 0.06 0.07 0.06 0.04 0.04 0.03 0.02 0.03 0.04 0.04 0.05 0.05 0.05
0.02 0.02 0.03 0.04 0.07 0.08 0.08 0.08 0.07 0.05 0.04 0.04 0.04 0.05 0.04 0.04 0.03 0.03 0.02 0.01 0.01 0.02 0.03 0.04 0.05 0.05 0.05 0.05 0.05 0.05 0.06 0.06 0.06 0.05 0.03 0.03 0.02 0.03 0.04 0.05 0.05 0.06 0.08
0.01 0.02 0.03 0.05 0.06 0.08 0.08 0.07 0.05 0.04 0.03 0.02 0.02 0.03 0.04 0.04 0.03 0.02 0.02 0.02 0.02 0.02 0.03 0.04 0.05 0.05 0.05 0.06 0.06 0.05 0.06 0.07 0.07 0.06 0.04 0.02 0.02 0.03 0.04 0.04 0.05 0.06 0.07
0.01 0.02 0.03 0.03 0.04 0.05 0.05 0.04 0.03 0.02 0.02 0.01 0.01 0.02 0.04 0.04 0.03 0.02 0.02 0.02 0.02 0.02 0.03 0.04 0.05 0.05 0.06 0.06 0.06 0.06 0.06 0.07 0.07 0.08 0.06 0.04 0.02 0.02 0.03 0.03 0.03 0.03 0.05
0.01 0.01 0.02 0.02 0.02 0.03 0.04 0.03 0.03 0.02 0.01 0.01 0.00 0.01 0.01 0.01 0.01 0.02 0.02 0.02 0.02 0.03 0.03 0.04 0.04 0.04 0.04 0.05 0.05 0.05 0.06 0.06 0.07 0.08 0.08 0.06 0.04 0.03 0.03 0.02 0.02 0.02 0.03
0.00 0.01 0.01 0.02 0.02 0.03 0.03 0.03 0.04 0.03 0.02 0.01 0.01 0.01 0.01 0.01 0.01 0.01 0.02 0.02 0.03 0.04 0.05 0.05 0.04 0.03 0.03 0.03 0.04 0.05 0.05 0.06 0.07 0.08 0.09 0.07 0.06 0.06 0.05 0.03 0.02 0.02 0.03
0.00 0.00 0.01 0.01 0.01 0.02 0.02 0.03 0.03 0.03 0.03 0.02 0.02 0.02 0.01 0.01 0.01 0.01 0.01 0.01 0.01 0.02 0.03 0.04 0.04 0.04 0.04 0.05 0.04 0.04 0.05 0.05 0.05 0.05 0.05 0.05 0.04 0.05 0.05 0.03 0.02 0.02 0.02
0.01 0.01 0.00 0.01 0.01 0.01 0.01 0.02 0.02 0.02 0.02 0.03 0.03 0.03 0.02 0.02 0.01 0.01 0.01 0.01 0.01 0.02 0.02 0.02 0.03 0.04 0.04 0.05 0.05 0.04 0.04 0.05 0.05 0.04 0.04 0.04 0.04 0.04 0.03 0.02 0.02 0.02 0.01
0.01 0.01 0.01 0.01 0.01 0.01 0.01 0.01 0.01 0.01 0.02 0.02 0.03 0.04 0.04 0.03 0.02 0.02 0.03 0.03 0.02 0.02 0.02 0.02 0.03 0.04 0.05 0.05 0.04 0.04 0.04 0.04 0.04 0.04 0.04 0.03 0.03 0.04 0.03 0.02 0.01 0.01 0.01
0.01 0.01 0.01 0.01 0.01 0.01 0.01 0.01 0.01 0.01 0.02 0.02 0.03 0.03 0.05 0.04 0.03 0.03 0.04 0.04 0.02 0.02 0.03 0.03 0.04 0.04 0.05 0.05 0.04 0.04 0.05 0.04 0.04 0.03 0.03 0.03 0.03 0.03 0.02 0.02 0.01 0.01 0.01
0.01 0.01 0.01 0.01 0.01 0.01 0.01 0.01 0.02 0.02 0.02 0.02 0.03 0.04 0.04 0.04 0.03 0.03 0.04 0.04 0.03 0.03 0.03 0.03 0.03 0.03 0.04 0.05 0.05 0.04 0.04 0.04 0.04 0.04 0.03 0.03 0.03 0.03 0.03 0.03 0.03 0.03 0.02
0.01 0.01 0.01 0.01 0.01 0.01 0.01 0.01 0.01 0.02 0.02 0.02 0.03 0.04 0.04 0.04 0.03 0.03 0.04 0.04 0.04 0.04 0.04 0.04 0.04 0.03 0.02 0.03 0.04 0.04 0.03 0.03 0.04 0.05 0.04 0.04 0.04 0.03 0.02 0.02 0.02 0.03 0.03
0.00 0.00 0.00 0.01 0.01 0.01 0.01 0.01 0.01 0.01 0.02 0.02 0.02 0.03 0.05 0.04 0.03 0.03 0.04 0.04 0.03 0.04 0.03 0.03 0.03 0.03 0.02 0.02 0.02 0.03 0.03 0.04 0.03 0.04 0.04 0.04 0.04 0.03 0.02 0.02 0.02 0.02 0.02
MSLP
1020.09 1019.48 1018.89 1018.44 1018.17 1018.07 1018.09 1018.13 1018.13 1018.04 1017.84 1017.58 1017.32 1017.11 1017.01 1017.03 1017.15 1017.32 1017.50 1017.63 1017.69 1017.68 1017.62 1017.55 1017.50 1017.48 1017.50 1017.55 1017.59 1017.62 1017.62 1017.59 1017.55 1017.52 1017.50 1017.52 1017.56 1017.61 1017.65 1017.65 1017.61 1017.54 1017.46
1020.49 1019.92 1019.38 1018.97 1018.74 1018.64 1018.63 1018.63 1018.56 1018.39 1018.13 1017.81 1017.51 1017.28 1017.18 1017.20 1017.33 1017.51 1017.69 1017.82 1017.89 1017.90 1017.86 1017.83 1017.81 1017.83 1017.87 1017.93 1017.97 1017.98 1017.95 1017.90 1017.83 1017.79 1017.79 1017.82 1017.88 1017.95 1018.01 1018.02 1017.99 1017.91 1017.82
1020.85 1020.31 1019.82 1019.46 1019.25 1019.16 1019.13 1019.09 1018.97 1018.76 1018.45 1018.11 1017.79 1017.56 1017.45 1017.45 1017.55 1017.69 1017.83 1017.93 1017.97 1017.97 1017.95 1017.94 1017.97 1018.03 1018.12 1018.20 1018.24 1018.25 1018.20 1018.13 1018.05 1018.00 1018.00 1018.05 1018.14 1018.23 1018.31 1018.35 1018.33 1018.27 1018.18
1021.14 1020.66 1020.22 1019.90 1019.71 1019.63 1019.59 1019.52 1019.38 1019.14 1018.82 1018.48 1018.17 1017.93 1017.80 1017.77 1017.81 1017.88 1017.94 1017.96 1017.95 1017.92 1017.90 1017.91 1017.98 1018.09 1018.22 1018.33 1018.41 1018.42 1018.37 1018.29 1018.20 1018.15 1018.16 1018.23 1018.34 1018.47 1018.57 1018.64 1018.64 1018.59 1018.52
1021.41 1020.97 1020.59 1020.32 1020.16 1020.09 1020.04 1019.95 1019.79 1019.55 1019.23 1018.90 1018.59 1018.35 1018.20 1018.12 1018.09 1018.06 1018.02 1017.95 1017.86 1017.78 1017.74 1017.76 1017.86 1018.02 1018.20 1018.36 1018.47 1018.50 1018.47 1018.39 1018.31 1018.27 1018.30 1018.38 1018.52 1018.67 1018.81 1018.89 1018.92 1018.90 1018.84
1021.67 1021.30 1020.98 1020.76 1020.64 1020.57 1020.51 1020.41 1020.23 1019.97 1019.66 1019.33 1019.03 1018.79 1018.61 1018.48 1018.37 1018.25 1018.10 1017.92 1017.75 1017.61 1017.54 1017.57 1017.69 1017.88 1018.10 1018.31 1018.45 1018.51 1018.50 1018.45 1018.39 1018.37 1018.41 1018.52 1018.68 1018.86 1019.01 1019.12 1019.17 1019.17 1019.13
1022.00 1021.69 1021.44 1021.28 1021.18 1021.12 1021.05 1020.91 1020.70 1020.42 1020.09 1019.76 1019.46 1019.21 1019.01 1018.83 1018.65 1018.44 1018.20 1017.93 1017.67 1017.47 1017.37 1017.38 1017.50 1017.72 1017.96 1018.19 1018.36 1018.46 1018.47 1018.45 1018.42 1018.43 1018.50 1018.63 1018.81 1019.01 1019.18 1019.30 1019.37 1019.38 1019.36
1022.46 1022.21 1022.02 1021.90 1021.83 1021.76 1021.65 1021.47 1021.21 1020.89 1020.53 1020.18 1019.86 1019.59 1019.37 1019.15 1018.92 1018.65 1018.34 1018.00 1017.68 1017.43 1017.28 1017.26 1017.36 1017.56 1017.81 1018.04 1018.22 1018.33 1018.37 1018.38 1018.38 1018.42 1018.53 1018.69 1018.89 1019.10 1019.28 1019.42 1019.50 1019.53 1019.53
1023.06 1022.86 1022.73 1022.64 1022.58 1022.49 1022.33 1022.09 1021.76 1021.37 1020.96 1020.57 1020.23 1019.95 1019.70 1019.46 1019.20 1018.89 1018.53 1018.15 1017.79 1017.49 1017.29 1017.22 1017.28 1017.44 1017.65 1017.85 1018.01 1018.12 1018.18 1018.20 1018.24 1018.31 1018.45 1018.63 1018.86 1019.09 1019.29 1019.45 1019.54 1019.59 1019.61
1023.81 1023.64 1023.54 1023.47 1023.39 1023.26 1023.05 1022.73 1022.33 1021.86 1021.40 1020.96 1020.59 1020.28 1020.02 1019.76 1019.49 1019.17 1018.79 1018.38 1017.99 1017.64 1017.40 1017.27 1017.26 1017.34 1017.48 1017.63 1017.75 1017.83 1017.88 1017.92 1017.98 1018.08 1018.24 1018.46 1018.70 1018.95 1019.18 1019.35 1019.48 1019.56 1019.61
1024.65 1024.50 1024.40 1024.33 1024.22 1024.05 1023.76 1023.37 1022.89 1022.35 1021.82 1021.34 1020.94 1020.60 1020.33 1020.07 1019.80 1019.47 1019.09 1018.67 1018.25 1017.87 1017.57 1017.37 1017.27 1017.27 1017.31 1017.38 1017.44 1017.48 1017.51 1017.54 1017.61 1017.73 1017.91 1018.14 1018.41 1018.68 1018.93 1019.14 1019.30 1019.42 1019.51
1025.52 1025.36 1025.26 1025.15 1025.01 1024.78 1024.43 1023.96 1023.41 1022.82 1022.24 1021.72 1021.29 1020.94 1020.65 1020.39 1020.12 1019.79 1019.42 1018.99 1018.55 1018.13 1017.77 1017.49 1017.31 1017.20 1017.15 1017.12 1017.11 1017.10 1017.09 1017.11 1017.17 1017.30 1017.49 1017.73 1018.01 1018.29 1018.57 1018.81 1019.01 1019.18 1019.34
1026.35 1026.17 1026.04 1025.90 1025.70 1025.41 1025.00 1024.48 1023.88 1023.25 1022.64 1022.09 1021.64 1021.28 1020.98 1020.72 1020.44 1020.11 1019.73 1019.29 1018.83 1018.37 1017.96 1017.61 1017.33 1017.14 1016.99 1016.89 1016.80 1016.74 1016.70 1016.69 1016.74 1016.85 1017.02 1017.26 1017.54 1017.83 1018.12 1018.39 1018.64 1018.87 1019.09
1027.09 1026.88 1026.71 1026.52 1026.26 1025.92 1025.46 1024.90 1024.27 1023.62 1023.00 1022.45 1021.99 1021.62 1021.32 1021.04 1020.74 1020.40 1020.00 1019.54 1019.06 1018.56 1018.10 1017.69 1017.35 1017.08 1016.86 1016.69 1016.56 1016.45 1016.37 1016.34 1016.36 1016.45 1016.60 1016.80 1017.06 1017.34 1017.63 1017.93 1018.22 1018.50 1018.78
1027.71 1027.48 1027.26 1027.02 1026.71 1026.31 1025.82 1025.23 1024.60 1023.95 1023.33 1022.79 1022.33 1021.95 1021.63 1021.33 1021.01 1020.64 1020.21 1019.73 1019.21 1018.69 1018.18 1017.73 1017.34 1017.02 1016.76 1016.56 1016.39 1016.26 1016.17 1016.11 1016.10 1016.14 1016.25 1016.41 1016.62 1016.86 1017.14 1017.45 1017.76 1018.09 1018.42
1028.24 1027.98 1027.72 1027.42 1027.06 1026.62 1026.09 1025.49 1024.86 1024.22 1023.63 1023.10 1022.64 1022.25 1021.91 1021.57 1021.22 1020.81 1020.35 1019.83 1019.29 1018.73 1018.20 1017.72 1017.31 1016.97 1016.70 1016.49 1016.31 1016.18 1016.07 1016.00 1015.95 1015.96 1016.00 1016.10 1016.25 1016.45 1016.70 1016.98 1017.31 1017.66 1018.02
1028.71 1028.43 1028.12 1027.77 1027.36 1026.88 1026.33 1025.72 1025.10 1024.47 1023.89 1023.37 1022.91 1022.51 1022.13 1021.76 1021.36 1020.91 1020.41 1019.86 1019.29 1018.71 1018.17 1017.68 1017.26 1016.92 1016.65 1016.44 1016.28 1016.16 1016.05 1015.96 1015.90 1015.85 1015.84 1015.87 1015.95 1016.09 1016.30 1016.56 1016.87 1017.23 1017.61
1029.15 1028.85 1028.51 1028.12 1027.66 1027.15 1026.57 1025.96 1025.33 1024.72 1024.14 1023.62 1023.14 1022.71 1022.30 1021.88 1021.43 1020.94 1020.40 1019.82 1019.23 1018.64 1018.09 1017.59 1017.18 1016.84 1016.59 1016.39 1016.25 1016.14 1016.04 1015.94 1015.85 1015.77 1015.71 1015.68 1015.70 1015.79 1015.95 1016.18 1016.48 1016.83 1017.21
1029.58 1029.27 1028.91 1028.48 1027.99 1027.45 1026.85 1026.23 1025.59 1024.98 1024.39 1023.85 1023.34 1022.87 1022.41 1021.94 1021.45 1020.91 1020.34 1019.75 1019.14 1018.54 1017.98 1017.49 1017.07 1016.74 1016.48 1016.30 1016.16 1016.05 1015.96 1015.86 1015.76 1015.65 1015.56 1015.49 1015.47 1015.52 1015.65 1015.86 1016.14 1016.49 1016.86
1030.00 1029.69 1029.31 1028.86 1028.35 1027.79 1027.18 1026.54 1025.90 1025.26 1024.65 1024.07 1023.52 1022.99 1022.47 1021.95 1021.41 1020.85 1020.25 1019.65 1019.03 1018.44 1017.88 1017.38 1016.95 1016.60 1016.33 1016.13 1015.98 1015.87 1015.77 1015.66 1015.55 1015.44 1015.33 1015.25 1015.22 1015.27 1015.39 1015.60 1015.89 1016.23 1016.60
1030.39 1030.07 1029.69 1029.24 1028.73 1028.15 1027.54 1026.89 1026.23 1025.56 1024.91 1024.28 1023.66 1023.07 1022.49 1021.91 1021.33 1020.74 1020.14 1019.54 1018.93 1018.34 1017.79 1017.28 1016.83 1016.45 1016.14 1015.90 1015.72 1015.57 1015.45 1015.33 1015.22 1015.11 1015.02 1014.96 1014.95 1015.02 1015.18 1015.42 1015.73 1016.09 1016.46
1030.70 1030.39 1030.02 1029.58 1029.07 1028.50 1027.89 1027.24 1026.57 1025.87 1025.17 1024.47 1023.79 1023.12 1022.46 1021.83 1021.21 1020.61 1020.01 1019.42 1018.84 1018.27 1017.73 1017.21 1016.74 1016.32 1015.95 1015.65 1015.41 1015.20 1015.04 1014.90 1014.78 1014.68 1014.62 1014.61 1014.66 1014.79 1015.01 1015.31 1015.67 1016.06 1016.46
1030.90 1030.60 1030.25 1029.82 1029.34 1028.80 1028.21 1027.57 1026.88 1026.16 1025.40 1024.64 1023.87 1023.12 1022.40 1021.71 1021.06 1020.44 1019.86 1019.30 1018.76 1018.23 1017.71 1017.20 1016.70 1016.23 1015.81 1015.43 1015.10 1014.83 1014.61 1014.43 1014.30 1014.22 1014.19 1014.24 1014.37 1014.58 1014.89 1015.27 1015.70 1016.15 1016.58
1030.96 1030.68 1030.35 1029.95 1029.51 1029.01 1028.44 1027.82 1027.13 1026.39 1025.59 1024.76 1023.92 1023.08 1022.29 1021.54 1020.86 1020.24 1019.68 1019.17 1018.69 1018.21 1017.73 1017.24 1016.74 1016.24 1015.75 1015.30 1014.89 1014.53 1014.23 1014.01 1013.85 1013.78 1013.79 1013.89 1014.10 1014.41 1014.81 1015.28 1015.79 1016.31 1016.77
1030.90 1030.64 1030.32 1029.96 1029.55 1029.10 1028.57 1027.98 1027.30 1026.55 1025.71 1024.82 1023.91 1023.00 1022.13 1021.32 1020.61 1019.99 1019.46 1019.01 1018.59 1018.19 1017.77 1017.33 1016.85 1016.34 1015.82 1015.30 1014.81 1014.37 1014.00 1013.71 1013.52 1013.43 1013.46 1013.61 1013.89 1014.27 1014.76 1015.31 1015.90 1016.48 1016.99
1030.75 1030.49 1030.19 1029.86 1029.49 1029.07 1028.59 1028.02 1027.37 1026.61 1025.76 1024.82 1023.84 1022.86 1021.93 1021.07 1020.32 1019.70 1019.21 1018.80 1018.46 1018.15 1017.82 1017.45 1017.02 1016.53 1016.00 1015.44 1014.89 1014.38 1013.94 1013.59 1013.34 1013.24 1013.26 1013.43 1013.74 1014.18 1014.73 1015.34 1016.00 1016.63 1017.18
Thickness
5715 5716 5715 5716 5717 5718 5718 5718 5719 5719 5720 5721 5721 5721 5722 5722 5722 5723 5723 5723 5722 5722 5722 5722 5722 5721 5721 5721 5721 5721 5721 5721 5721 5721 5722 5721 5721 5721 5721 5720 5720 5719 5719
5713 5712 5712 5712 5713 5714 5714 5714 5714 5715 5716 5717 5717 5718 5718 5718 5719 5719 5720 5719 5719 5719 5719 5719 5718 5717 5717 5717 5717 5717 5717 5717 5717 5717 5718 5717 5717 5717 5717 5717 5716 5716 5716
5710 5709 5708 5708 5709 5709 5709 5710 5710 5710 5711 5712 5712 5713 5714 5714 5715 5715 5716 5716 5715 5715 5715 5715 5714 5714 5713 5713 5713 5713 5713 5713 5713 5714 5714 5714 5713 5713 5713 5713 5712 5712 5712
5706 5704 5703 5703 5704 5704 5704 5705 5705 5705 5706 5707 5707 5708 5709 5709 5710 5710 5711 5711 5711 5711 5711 5711 5710 5710 5709 5709 5709 5709 5709 5709 5709 5710 5710 5710 5710 5709 5709 5709 5708 5708 5707
5700 5699 5698 5697 5698 5699 5699 5699 5700 5700 5701 5701 5702 5702 5703 5704 5705 5706 5706 5706 5707 5707 5707 5707 5706 5705 5705 5705 5705 5705 5705 5705 5706 5706 5706 5706 5706 5705 5705 5704 5704 5703 5702
5694 5693 5692 5692 5692 5693 5693 5693 5694 5694 5694 5695 5696 5696 5698 5699 5699 5700 5701 5701 5702 5702 5702 5702 5702 5701 5701 5701 5701 5701 5701 5702 5702 5702 5702 5702 5701 5701 5700 5700 5699 5698 5698
5687 5686 5685 5685 5685 5686 5686 5687 5687 5688 5688 5689 5690 5690 5691 5693 5694 5694 5695 5696 5696 5697 5697 5697 5697 5697 5697 5697 5697 5697 5697 5697 5697 5697 5698 5697 5697 5696 5695 5695 5694 5694 5693
5680 5679 5678 5678 5678 5679 5680 5680 5681 5682 5682 5682 5683 5684 5685 5686 5687 5688 5689 5689 5690 5691 5691 5692 5692 5692 5692 5692 5692 5693 5692 5692 5693 5693 5693 5692 5692 5691 5690 5690 5689 5689 5688
5673 5672 5671 5670 5671 5671 5672 5673 5674 5675 5675 5675 5676 5677 5678 5679 5680 5681 5682 5683 5684 5685 5685 5686 5686 5687 5687 5687 5688 5688 5688 5688 5688 5688 5688 5687 5687 5686 5686 5685 5684 5684 5683
5664 5664 5663 5663 5664 5664 5664 5665 5666 5667 5668 5669 5669 5670 5671 5672 5673 5674 5676 5676 5677 5678 5679 5680 5680 5681 5681 5682 5682 5683 5683 5682 5682 5682 5682 5682 5681 5681 5680 5680 5679 5679 5678
5653 5654 5655 5655 5656 5657 5657 5657 5658 5660 5660 5661 5662 5663 5664 5665 5666 5667 5668 5669 5670 5671 5672 5673 5674 5675 5675 5676 5676 5677 5677 5677 5677 5676 5677 5676 5676 5676 5675 5674 5674 5673 5673
5642 5643 5645 5646 5647 5648 5649 5649 5650 5651 5652 5653 5654 5655 5656 5657 5658 5659 5660 5662 5663 5664 5665 5666 5667 5668 5669 5670 5670 5670 5671 5671 5670 5670 5670 5670 5670 5670 5669 5669 5668 5668 5667
5632 5633 5635 5636 5637 5638 5639 5640 5641 5642 5643 5644 5645 5646 5647 5648 5649 5650 5651 5653 5654 5655 5657 5658 5659 5660 5661 5662 5663 5664 5664 5664 5663 5663 5663 5664 5664 5664 5663 5663 5662 5662 5662
5623 5624 5625 5626 5627 5628 5629 5630 5631 5632 5633 5634 5635 5636 5637 5639 5639 5640 5642 5643 5645 5646 5648 5649 5651 5652 5653 5655 5656 5657 5657 5656 5656 5656 5656 5656 5657 5657 5657 5656 5656 5656 5656
5613 5613 5614 5616 5616 5617 5618 5619 5620 5622 5623 5624 5626 5626 5627 5628 5629 5630 5631 5633 5635 5636 5638 5640 5641 5643 5644 5646 5647 5648 5648 5648 5648 5649 5648 5648 5649 5649 5650 5650 5650 5650 5650
5602 5603 5604 5605 5605 5606 5607 5608 5609 5611 5612 5613 5615 5616 5617 5618 5618 5619 5621 5622 5624 5626 5628 5630 5632 5633 5634 5636 5637 5638 5639 5639 5640 5640 5640 5641 5641 5642 5642 5643 5643 5644 5644
5592 5593 5593 5594 5594 5595 5595 5597 5598 5599 5600 5602 5604 5605 5606 5606 5607 5608 5610 5612 5613 5615 5617 5619 5621 5622 5624 5625 5627 5628 5628 5630 5631 5631 5632 5632 5632 5633 5634 5635 5635 5636 5636
5580 5580 5581 5582 5582 5583 5584 5585 5587 5588 5589 5591 5592 5593 5594 5595 5596 5597 5599 5601 5602 5604 5606 5607 5609 5611 5611 5613 5615 5617 5619 5620 5622 5623 5623 5623 5624 5624 5625 5626 5627 5628 5628
5567 5567 5568 5570 5570 5571 5572 5574 5576 5576 5577 5579 5580 5581 5583 5583 5584 5586 5587 5589 5591 5593 5594 5595 5597 5598 5600 5601 5603 5606 5608 5610 5612 5613 5615 5615 5615 5616 5616 5616 5618 5619 5620
5556 5555 5556 5557 5558 5559 5560 5562 5564 5564 5564 5566 5568 5569 5571 5572 5573 5574 5575 5577 5579 5581 5582 5583 5584 5586 5588 5590 5593 5595 5597 5600 5602 5603 5604 5606 5607 5607 5607 5608 5609 5610 5611
5543 5543 5544 5545 5546 5547 5548 5548 5549 5550 5551 5554 5555 5557 5558 5560 5561 5562 5564 5565 5566 5568 5569 5571 5572 5573 5575 5578 5580 5582 5585 5589 5591 5592 5594 5596 5597 5598 5599 5599 5600 5600 5601
5532 5532 5532 5532 5533 5534 5535 5536 5537 5538 5539 5540 5542 5544 5546 5547 5548 5550 5551 5552 5554 5555 5557 5558 5560 5560 5563 5566 5567 5569 5572 5575 5579 5582 5584 5586 5587 5588 5588 5590 5591 5591 5592
5521 5520 5521 5521 5522 5522 5523 5524 5525 5525 5526 5527 5529 5531 5534 5536 5537 5538 5539 5541 5542 5543 5544 5545 5547 5549 5550 5552 5555 5557 5560 5563 5565 5568 5572 5575 5576 5577 5578 5580 5581 5582 5583
5510 5510 5510 5510 5510 5511 5511 5512 5512 5512 5513 5515 5516 5518 5521 5523 5525 5526 5528 5529 5530 5532 5533 5534 5536 5537 5538 5540 5543 5546 5548 5551 5552 5554 5559 5562 5564 5565 5567 5569 5570 5571 5572
5501 5500 5499 5499 5499 5499 5500 5500 5501 5501 5502 5503 5505 5507 5509 5511 5513 5515 5516 5518 5519 5520 5521 5523 5524 5526 5527 5529 5531 5533 5536 5539 5542 5543 5544 5548 5550 5553 5555 5557 5558 5560 5561
5491 5489 5488 5488 5488 5488 5488 5489 5489 5490 5490 5491 5493 5495 5497 5500 5502 5503 5504 5506 5508 5509 5511 5512 5513 5515 5516 5518 5520 5522 5524 5526 5529 5531 5532 5534 5537 5541 5544 5546 5547 5548 5550